Regional Weather Roundup
Issued by NWS

Home | Current Version | Previous Version | Text Only | Print | Product List | Glossary On
Versions: 1 2 3 4 5 6 7 8 9 10 11 12 13 14 15 16 17 18 19 20 21 22 23 24 25 26 27 28 29 30 31 32 33 34 35 36 37 38 39 40 41 42 43 44 45 46 47 48 49 50
000
ASUS43 KLSX 160957
RWRMO

WEATHER SUMMARY FOR MISSOURI
NATIONAL WEATHER SERVICE SPRINGFIELD MO
500 AM CDT WED AUG 16 2017

NOTE: "FAIR" INDICATES FEW OR NO CLOUDS BELOW 12,000 FEET WITH NO
       SIGNIFICANT WEATHER AND/OR OBSTRUCTIONS TO VISIBILITY.
       CURRENT SKY AND/OR WEATHER CONDITIONS ARE NOT AVAILABLE FOR
       CHILLICOTHE AND FARMINGTON.

MOZ001>031-035>038-043-044-053-054-161100-
...NORTHERN AND WESTERN MISSOURI...

CITY           SKY/WX    TMP DP  RH WIND       PRES   REMARKS
KANSAS CTY INT CLOUDY    75  72  90 SE7       29.82F
LEE`S SUMMIT   PTCLDY    75  73  93 S9        29.84F
ST JOSEPH      PTCLDY    75  72  90 SE8       29.80F
CHILLICOTHE      N/A     73  70  90 SE6       29.85F

$$
MOZ066>068-077>081-088>096-101>105-161100-
...SOUTHWEST MISSOURI...

CITY           SKY/WX    TMP DP  RH WIND       PRES   REMARKS
SPRINGFIELD    CLOUDY    71  71 100 SE9       29.89F
JOPLIN         CLOUDY    75  72  90 S8        29.85F

$$
MOZ032>034-039>042-045>050-055>058-069>072-161100-
...CENTRAL MISSOURI...

CITY           SKY/WX    TMP DP  RH WIND       PRES   REMARKS
COLUMBIA       NOT AVBL
JEFFERSON CITY CLOUDY    75  74  96 E6        29.86F
ROLLA          LGT RAIN  72  71  97 S7        29.91F
SEDALIA        CLOUDY    75  73  93 S8        29.87F
WARRENSBURG    CLOUDY    72  70  94 S6        29.84F

$$
MOZ051-052-059>065-161100-
...EAST CENTRAL MISSOURI...

CITY           SKY/WX    TMP DP  RH WIND       PRES   REMARKS
ST LOUIS INTL  TSTM      77  73  87 SE7       29.92F
ST CHARLES     HVY RAIN  73  73 100 VRB3      29.92R FOG

$$
MOZ072>076-082>087-097>100-106>115-161100-
...SOUTH CENTRAL AND SOUTHEAST MISSOURI...

CITY           SKY/WX    TMP DP  RH WIND       PRES   REMARKS
CAPE GIRARDEAU PTCLDY    72  70  93 CALM      29.94S
POPLAR BLUFF   MOCLDY    71  71 100 CALM      29.93F
WEST PLAINS    MOCLDY    74  73  97 SE3       29.95F FOG

$$



USA.gov is the U.S. government's official web portal to all federal, state and local government web resources and services.